Theta_e
310 311 309 304 299 305 298 298 294 305 313 320 322 322 324 325 328 329 331 335 340 338 342 341 340 342 345 348 351 354 353 353
309 310 309 303 304 296 296 290 289 302 308 308 313 316 318 319 322 326 330 333 335 338 341 344 343 344 343 344 342 350 353 354
305 300 300 301 298 299 298 296 291 297 301 318 315 315 315 317 320 324 327 331 332 332 334 338 340 339 340 338 335 335 335 344
298 305 305 302 299 299 294 293 300 303 302 320 318 316 316 315 319 323 328 329 331 331 332 333 336 336 337 339 336 335 336 342
294 297 300 297 301 298 298 298 296 296 303 319 318 317 317 315 318 321 324 326 327 327 327 329 331 335 338 335 334 338 342 342
289 293 299 296 300 301 297 293 302 305 306 310 313 313 316 316 317 319 321 323 325 326 325 325 328 330 332 333 336 338 340 339
297 301 301 299 299 301 296 299 301 305 306 310 313 314 316 318 317 316 319 321 322 325 326 324 324 325 326 329 330 334 333 335
294 300 300 297 299 301 300 309 309 309 306 314 315 317 317 316 316 315 314 316 321 320 322 326 325 325 326 327 327 329 330 332
290 298 297 292 296 298 298 300 311 305 309 314 313 314 315 316 316 315 314 314 315 315 315 316 318 325 326 327 328 328 327 329
291 294 284 294 304 302 299 301 312 313 314 315 315 316 317 318 315 314 313 311 310 311 312 313 315 317 320 326 329 327 327 329
287 288 293 298 302 299 297 307 315 313 314 316 317 316 314 317 316 313 311 309 309 312 313 312 312 314 317 319 320 320 321 322
290 286 285 296 302 305 302 299 314 315 314 313 312 304 308 314 313 310 309 309 309 310 311 310 310 313 313 315 315 315 317 318
288 288 295 302 304 305 292 296 309 315 312 311 307 308 310 309 308 308 307 308 309 310 309 309 312 312 311 312 311 314 316 316
289 286 288 306 305 299 303 308 310 311 309 306 305 306 307 308 308 307 306 307 309 307 307 310 311 310 309 310 313 314 314 314
294 295 303 306 305 307 309 307 308 308 308 308 307 307 307 307 307 306 306 306 307 305 306 308 309 310 308 308 310 310 309 310
297 304 303 305 307 308 309 307 308 309 309 308 306 307 306 305 304 304 305 305 306 305 305 305 307 307 306 308 309 308 307 307
296 299 302 305 306 306 306 308 307 307 305 304 305 304 304 304 303 304 304 305 305 304 305 304 305 304 306 306 306 305 306 307
294 302 300 302 305 308 305 304 306 304 304 304 303 303 305 303 304 305 304 304 304 304 303 302 303 303 304 305 304 303 303 306
302 306 305 307 308 309 306 306 306 303 303 302 303 303 304 303 304 306 303 304 303 302 302 302 302 302 303 304 303 302 300 302
Wind_Speed
10 9 5 6 5 10 3 6 3 5 9 9 11 10 9 6 12 11 10 9 4 9 9 2 8 12 13 14 12 12 9 6
4 3 3 3 4 6 3 2 2 4 6 7 12 10 9 8 11 12 4 11 12 10 9 8 8 11 12 9 8 2 9 7
7 2 5 1 5 2 1 1 5 5 3 3 10 8 11 10 8 8 9 10 9 9 6 8 5 15 12 12 12 11 9 13
6 8 3 5 7 4 5 8 3 5 3 3 11 10 10 9 9 6 11 12 9 8 9 7 8 9 7 6 9 5 4 11
8 2 4 1 6 6 4 3 4 6 6 3 14 12 9 11 7 8 12 12 11 10 10 11 9 9 5 7 6 7 7 12
6 8 4 7 8 9 2 2 6 5 14 10 13 13 12 11 10 10 13 13 12 11 11 10 11 9 8 7 6 3 5 5
14 7 8 7 14 11 4 5 6 15 18 14 13 13 13 10 10 11 12 13 12 11 10 10 11 10 8 6 5 7 7 9
10 10 8 6 11 3 5 12 11 17 11 13 11 11 12 10 12 14 12 12 12 11 12 10 9 8 7 6 6 6 5 6
5 10 9 7 5 7 6 6 16 13 9 15 15 13 11 9 12 12 11 8 9 9 8 8 7 5 7 6 5 6 7 7
4 5 2 5 7 7 9 6 14 18 19 17 14 11 12 10 13 10 9 8 7 7 8 8 7 8 6 5 5 6 5 4
3 3 4 9 6 6 6 7 20 24 20 17 15 14 7 11 13 10 10 7 7 7 9 9 8 7 7 8 7 9 8 8
4 3 1 2 10 12 4 5 7 18 16 21 19 12 6 12 13 12 10 7 7 8 9 9 8 7 8 8 9 9 7 7
5 2 4 7 9 10 5 4 6 13 17 17 9 6 11 14 11 10 9 8 8 8 7 7 7 7 8 7 7 5 6 6
2 2 3 6 8 6 2 10 16 15 17 16 12 15 15 14 11 9 9 7 9 7 7 7 7 7 7 7 5 7 7 6
4 2 3 7 7 7 8 9 7 15 12 10 14 12 9 8 9 8 9 8 7 7 7 7 7 7 7 6 7 7 6 7
5 6 4 9 7 7 8 7 8 9 13 13 13 16 11 6 7 7 7 7 7 8 7 6 7 7 6 7 7 7 7 7
0 2 3 7 7 4 6 7 8 8 6 7 9 9 8 7 8 7 8 7 7 6 7 7 7 6 6 6 6 6 6 8
2 4 4 2 3 7 7 3 5 6 6 5 5 8 8 8 6 7 8 6 7 7 7 6 5 4 5 6 6 6 5 5
6 6 4 5 7 4 8 8 5 4 5 5 6 6 7 7 7 9 7 8 8 6 4 2 5 5 5 5 5 6 5 6
Wind_Direction
186 216 126 300 235 223 281 276 98 119 86 103 133 139 145 138 116 46 22 16 28 29 19 291 145 166 170 170 176 164 175 186
295 140 38 56 296 0 338 290 32 128 141 139 162 146 109 82 65 91 26 48 70 57 34 345 88 87 66 62 26 251 171 173
51 258 165 297 314 312 114 143 176 155 103 294 121 113 111 92 79 79 75 80 80 73 51 344 56 80 85 77 52 22 10 332
225 229 226 254 266 244 129 289 75 104 111 354 110 109 108 108 109 96 104 106 100 93 86 56 53 89 83 84 62 21 335 318
301 357 16 243 286 272 294 306 288 136 136 145 115 119 112 102 90 97 97 90 86 77 66 66 68 103 133 69 65 25 360 334
237 246 307 299 259 274 266 40 105 69 126 142 126 117 116 114 108 94 95 94 92 80 76 74 82 90 90 85 91 117 58 340
312 233 271 336 330 244 275 67 108 163 152 152 136 129 125 127 122 100 100 97 92 97 92 78 79 85 85 78 76 67 49 30
308 334 349 316 325 267 325 98 90 124 122 135 135 128 131 141 127 114 101 92 113 99 92 103 96 94 91 86 93 106 105 92
276 339 351 342 308 355 7 50 139 142 157 147 142 140 140 129 107 104 111 113 101 104 108 90 90 108 116 120 118 95 82 80
291 1 312 274 51 28 2 348 110 120 139 144 141 135 124 125 111 96 82 76 74 75 72 76 63 45 79 90 97 83 72 63
148 184 255 356 14 26 74 54 129 133 139 141 132 121 112 109 101 104 90 71 62 78 74 57 59 40 46 53 63 55 41 30
340 293 298 80 31 0 2 53 142 140 138 140 137 126 139 116 99 88 81 70 61 77 72 59 38 35 46 51 46 34 25 16
288 266 43 19 19 340 54 275 246 142 141 145 140 157 136 107 100 106 111 105 82 73 76 81 65 58 51 51 41 19 11 356
316 346 162 352 30 63 109 52 85 88 94 93 87 87 101 109 112 114 125 104 94 85 72 67 58 57 55 48 19 14 2 354
114 183 111 72 89 38 72 104 110 112 108 104 108 105 113 115 118 119 110 97 94 94 85 70 60 55 50 14 14 7 3 344
71 355 148 99 67 50 66 85 82 126 144 143 147 148 155 136 129 118 109 103 94 84 82 69 62 55 41 28 16 360 343 334
187 4 38 107 135 117 74 90 94 101 89 88 119 135 137 127 121 118 107 92 89 88 81 70 59 41 40 31 12 6 351 332
216 17 111 34 349 139 126 120 142 139 132 145 119 135 126 129 128 106 99 96 82 75 72 63 51 40 29 40 11 337 338 327
299 339 26 1 349 354 149 156 150 146 148 138 108 103 122 121 109 115 120 115 101 94 99 109 80 46 33 13 6 348 344 328